Time,TemperatureF,DewpointF,PressureIn,WindDirection,WindDirectionDegrees,WindSpeedMPH,WindSpeedGustMPH,Humidity,HourlyPrecipIn,Conditions,Clouds,dailyrainin,SoftwareType,DateUTC
2013-01-17 00:03:00,48.6,47.0,29.91,SSW,203,0.0,0.0,94,0.00,,,0.00,WUHU216HW,2013-01-17 05:03:00,
2013-01-17 00:08:00,48.6,47.0,29.92,SSW,203,0.0,0.0,94,0.00,,,0.00,WUHU216HW,2013-01-17 05:08:00,
2013-01-17 00:13:00,48.6,47.0,29.92,SSW,203,0.0,0.0,94,0.00,,,0.00,WUHU216HW,2013-01-17 05:13:00,
2013-01-17 00:18:00,48.6,47.3,29.93,SSW,203,0.0,0.0,95,0.00,,,0.00,WUHU216HW,2013-01-17 05:18:00,
2013-01-17 00:23:00,48.6,47.3,29.93,SSW,203,0.0,0.0,95,0.00,,,0.00,WUHU216HW,2013-01-17 05:23:00,
2013-01-17 00:28:00,48.6,47.3,29.93,SSW,203,0.0,0.0,95,0.00,,,0.00,WUHU216HW,2013-01-17 05:28:00,
2013-01-17 00:33:00,48.6,47.3,29.92,SSW,203,0.0,0.0,95,0.00,,,0.00,WUHU216HW,2013-01-17 05:33:00,
2013-01-17 00:38:00,48.6,47.3,29.92,SSW,203,0.0,0.0,95,0.00,,,0.00,WUHU216HW,2013-01-17 05:38:00,
2013-01-17 00:43:00,48.6,47.3,29.92,SSW,203,0.0,0.0,95,0.00,,,0.00,WUHU216HW,2013-01-17 05:43:00,
2013-01-17 00:48:00,48.6,47.3,29.94,South,180,0.0,0.0,95,0.00,,,0.00,WUHU216HW,2013-01-17 05:48:00,
2013-01-17 00:53:00,48.6,47.3,29.92,South,180,0.0,0.0,95,0.00,,,0.00,WUHU216HW,2013-01-17 05:53:00,
2013-01-17 00:58:00,48.6,47.3,29.92,South,180,0.0,0.0,95,0.00,,,0.00,WUHU216HW,2013-01-17 05:58:00,
2013-01-17 01:03:00,48.6,47.3,29.93,South,180,0.0,0.0,95,0.00,,,0.00,WUHU216HW,2013-01-17 06:03:00,
2013-01-17 01:08:00,48.8,47.4,29.93,South,180,0.0,0.0,95,0.00,,,0.00,WUHU216HW,2013-01-17 06:08:00,
2013-01-17 01:13:00,48.8,47.4,29.93,South,180,0.0,0.0,95,0.00,,,0.00,WUHU216HW,2013-01-17 06:13:00,
2013-01-17 01:18:00,48.8,47.4,29.93,South,180,0.0,0.0,95,0.00,,,0.00,WUHU216HW,2013-01-17 06:18:00,
2013-01-17 01:23:00,48.8,47.4,29.94,South,180,0.0,0.0,95,0.00,,,0.00,WUHU216HW,2013-01-17 06:23:00,
2013-01-17 01:28:00,48.8,47.4,29.93,South,180,0.0,0.0,95,0.00,,,0.00,WUHU216HW,2013-01-17 06:28:00,
2013-01-17 01:33:00,48.8,47.4,29.94,South,180,0.0,0.0,95,0.00,,,0.00,WUHU216HW,2013-01-17 06:33:00,
2013-01-17 01:38:00,48.8,47.4,29.94,South,180,0.0,0.0,95,0.00,,,0.00,WUHU216HW,2013-01-17 06:38:00,
2013-01-17 01:43:00,48.8,47.4,29.93,South,180,0.0,0.0,95,0.00,,,0.00,WUHU216HW,2013-01-17 06:43:00,
2013-01-17 01:48:00,48.8,47.4,29.93,South,180,0.0,0.0,95,0.00,,,0.00,WUHU216HW,2013-01-17 06:48:00,
2013-01-17 01:53:00,48.8,47.4,29.92,South,180,0.0,0.0,95,0.00,,,0.00,WUHU216HW,2013-01-17 06:53:00,
2013-01-17 01:58:00,48.8,47.4,29.92,SSW,203,0.0,0.0,95,0.00,,,0.00,WUHU216HW,2013-01-17 06:58:00,
2013-01-17 02:03:00,48.6,47.3,29.92,SSW,203,0.0,0.0,95,0.00,,,0.00,WUHU216HW,2013-01-17 07:03:00,
2013-01-17 02:08:00,48.6,47.3,29.93,SSW,203,0.0,0.0,95,0.00,,,0.00,WUHU216HW,2013-01-17 07:08:00,
2013-01-17 02:13:00,48.6,47.3,29.92,South,180,0.0,0.0,95,0.00,,,0.00,WUHU216HW,2013-01-17 07:13:00,
2013-01-17 02:18:00,48.6,47.3,29.92,South,180,0.0,0.0,95,0.00,,,0.00,WUHU216HW,2013-01-17 07:18:00,
2013-01-17 02:23:00,48.6,47.3,29.92,South,180,0.0,0.0,95,0.00,,,0.00,WUHU216HW,2013-01-17 07:23:00,
2013-01-17 02:28:00,48.6,47.3,29.92,South,180,0.0,0.0,95,0.00,,,0.00,WUHU216HW,2013-01-17 07:28:00,
2013-01-17 02:33:00,48.6,47.3,29.92,South,180,0.0,0.0,95,0.00,,,0.00,WUHU216HW,2013-01-17 07:33:00,
2013-01-17 02:38:00,48.6,47.3,29.92,South,180,0.0,0.0,95,0.00,,,0.00,WUHU216HW,2013-01-17 07:38:00,
2013-01-17 02:43:00,48.6,47.3,29.91,South,180,0.0,0.0,95,0.00,,,0.00,WUHU216HW,2013-01-17 07:43:00,
2013-01-17 02:48:00,48.6,47.3,29.91,South,180,0.0,0.0,95,0.00,,,0.00,WUHU216HW,2013-01-17 07:48:00,
2013-01-17 02:53:00,48.6,47.3,29.91,South,180,0.0,0.0,95,0.00,,,0.00,WUHU216HW,2013-01-17 07:53:00,
2013-01-17 02:58:00,48.8,47.4,29.90,South,180,0.0,0.0,95,0.00,,,0.00,WUHU216HW,2013-01-17 07:58:00,
2013-01-17 03:03:00,48.8,47.4,29.91,South,180,0.0,0.0,95,0.00,,,0.00,WUHU216HW,2013-01-17 08:03:00,
2013-01-17 03:08:00,48.8,47.4,29.90,South,180,0.0,0.0,95,0.00,,,0.00,WUHU216HW,2013-01-17 08:08:00,
2013-01-17 03:13:00,48.8,47.4,29.91,South,180,0.0,0.0,95,0.00,,,0.00,WUHU216HW,2013-01-17 08:13:00,
2013-01-17 03:18:00,48.8,47.4,29.90,South,180,0.0,0.0,95,0.00,,,0.00,WUHU216HW,2013-01-17 08:18:00,
2013-01-17 03:23:00,49.0,47.6,29.91,South,180,0.0,0.0,95,0.00,,,0.00,WUHU216HW,2013-01-17 08:23:00,
2013-01-17 03:28:00,48.8,47.4,29.90,South,180,0.0,0.0,95,0.00,,,0.00,WUHU216HW,2013-01-17 08:28:00,
2013-01-17 03:33:00,49.0,47.6,29.91,South,180,0.0,0.0,95,0.00,,,0.00,WUHU216HW,2013-01-17 08:33:00,
2013-01-17 03:38:00,49.0,47.6,29.91,South,180,0.0,0.0,95,0.00,,,0.00,WUHU216HW,2013-01-17 08:38:00,
2013-01-17 03:43:00,49.0,47.6,29.89,South,180,0.0,0.0,95,0.00,,,0.00,WUHU216HW,2013-01-17 08:43:00,
2013-01-17 03:48:00,49.0,47.6,29.89,South,180,0.0,0.0,95,0.00,,,0.00,WUHU216HW,2013-01-17 08:48:00,
2013-01-17 03:53:00,49.0,47.6,29.89,South,180,0.0,0.0,95,0.00,,,0.00,WUHU216HW,2013-01-17 08:53:00,
2013-01-17 03:58:00,49.0,47.6,29.89,South,180,0.0,0.0,95,0.00,,,0.00,WUHU216HW,2013-01-17 08:58:00,
2013-01-17 04:03:00,49.0,47.6,29.90,South,180,0.0,0.0,95,0.00,,,0.00,WUHU216HW,2013-01-17 09:03:00,
2013-01-17 04:08:00,49.0,47.6,29.89,South,180,0.0,0.0,95,0.00,,,0.00,WUHU216HW,2013-01-17 09:08:00,
2013-01-17 04:13:00,49.0,47.6,29.89,South,180,0.0,0.0,95,0.00,,,0.00,WUHU216HW,2013-01-17 09:13:00,
2013-01-17 04:18:00,49.0,47.6,29.89,South,180,0.0,0.0,95,0.00,,,0.00,WUHU216HW,2013-01-17 09:18:00,
2013-01-17 04:23:00,49.0,47.6,29.90,South,180,0.0,0.0,95,0.00,,,0.00,WUHU216HW,2013-01-17 09:23:00,
2013-01-17 04:28:00,49.0,47.6,29.90,South,180,0.0,0.0,95,0.00,,,0.00,WUHU216HW,2013-01-17 09:28:00,
2013-01-17 04:33:00,49.0,47.6,29.89,South,180,0.0,0.0,95,0.00,,,0.00,WUHU216HW,2013-01-17 09:33:00,
2013-01-17 04:38:00,49.0,47.6,29.89,South,180,0.0,0.0,95,0.00,,,0.00,WUHU216HW,2013-01-17 09:38:00,
2013-01-17 04:43:00,49.0,47.6,29.90,South,180,0.0,0.0,95,0.00,,,0.00,WUHU216HW,2013-01-17 09:43:00,
2013-01-17 04:48:00,49.0,47.6,29.89,South,180,0.0,0.0,95,0.00,,,0.00,WUHU216HW,2013-01-17 09:48:00,
2013-01-17 04:53:00,49.0,47.6,29.89,South,180,0.0,0.0,95,0.00,,,0.00,WUHU216HW,2013-01-17 09:53:00,
2013-01-17 04:58:00,49.0,47.6,29.89,South,180,0.0,0.0,95,0.00,,,0.00,WUHU216HW,2013-01-17 09:58:00,
2013-01-17 05:03:00,49.0,47.6,29.89,South,180,0.0,0.0,95,0.00,,,0.00,WUHU216HW,2013-01-17 10:03:00,
2013-01-17 05:09:00,49.0,47.6,29.88,South,180,0.0,0.0,95,0.00,,,0.00,WUHU216HW,2013-01-17 10:09:00,
2013-01-17 05:14:00,49.0,47.6,29.88,South,180,0.0,0.0,95,0.00,,,0.00,WUHU216HW,2013-01-17 10:14:00,
2013-01-17 05:19:00,49.0,47.6,29.89,South,180,0.0,0.0,95,0.00,,,0.00,WUHU216HW,2013-01-17 10:19:00,
2013-01-17 05:24:00,49.0,47.6,29.88,South,180,0.0,0.0,95,0.00,,,0.00,WUHU216HW,2013-01-17 10:24:00,
2013-01-17 05:29:00,49.0,47.6,29.87,South,180,0.0,0.0,95,0.00,,,0.00,WUHU216HW,2013-01-17 10:29:00,
2013-01-17 05:34:00,49.0,47.6,29.89,South,180,0.0,0.0,95,0.00,,,0.00,WUHU216HW,2013-01-17 10:34:00,
2013-01-17 05:39:00,49.0,47.6,29.88,South,180,0.0,0.0,95,0.00,,,0.00,WUHU216HW,2013-01-17 10:39:00,
2013-01-17 05:44:00,49.0,47.6,29.88,South,180,0.0,0.0,95,0.00,,,0.00,WUHU216HW,2013-01-17 10:44:00,
2013-01-17 05:49:00,49.0,47.6,29.87,South,180,0.0,0.0,95,0.00,,,0.00,WUHU216HW,2013-01-17 10:49:00,
2013-01-17 05:54:00,49.0,47.6,29.87,SSE,158,0.0,0.0,95,0.00,,,0.00,WUHU216HW,2013-01-17 10:54:00,
2013-01-17 05:59:00,49.0,47.6,29.87,SSE,158,0.0,0.0,95,0.00,,,0.00,WUHU216HW,2013-01-17 10:59:00,
2013-01-17 06:04:00,49.0,47.6,29.87,SSE,158,0.0,0.0,95,0.00,,,0.00,WUHU216HW,2013-01-17 11:04:00,
2013-01-17 06:09:00,49.0,47.6,29.87,SSE,158,0.0,0.0,95,0.00,,,0.00,WUHU216HW,2013-01-17 11:09:00,
2013-01-17 06:14:00,49.0,47.6,29.86,SSE,158,0.0,0.0,95,0.00,,,0.00,WUHU216HW,2013-01-17 11:14:00,
2013-01-17 06:19:00,49.0,47.6,29.87,SSE,158,0.0,0.0,95,0.00,,,0.00,WUHU216HW,2013-01-17 11:19:00,
2013-01-17 06:24:00,49.1,47.7,29.88,SSE,158,0.0,0.0,95,0.00,,,0.00,WUHU216HW,2013-01-17 11:24:00,
2013-01-17 06:29:00,49.1,47.7,29.87,SSE,158,0.0,0.0,95,0.00,,,0.00,WUHU216HW,2013-01-17 11:29:00,
2013-01-17 06:34:00,49.1,47.7,29.87,SSE,158,0.0,0.0,95,0.00,,,0.00,WUHU216HW,2013-01-17 11:34:00,
2013-01-17 06:39:00,49.1,47.7,29.87,SSE,158,0.0,0.0,95,0.00,,,0.00,WUHU216HW,2013-01-17 11:39:00,
2013-01-17 06:44:00,49.1,47.7,29.87,SSE,158,0.0,0.0,95,0.00,,,0.00,WUHU216HW,2013-01-17 11:44:00,
2013-01-17 06:49:00,49.1,47.7,29.86,SSE,158,0.0,0.0,95,0.00,,,0.00,WUHU216HW,2013-01-17 11:49:00,
2013-01-17 06:54:00,49.3,47.9,29.87,SSE,158,0.0,0.7,95,0.00,,,0.00,WUHU216HW,2013-01-17 11:54:00,
2013-01-17 06:59:00,49.3,47.9,29.86,SSE,158,0.0,0.7,95,0.00,,,0.00,WUHU216HW,2013-01-17 11:59:00,
2013-01-17 07:04:00,49.5,48.1,29.86,SSE,158,0.0,0.0,95,0.00,,,0.00,WUHU216HW,2013-01-17 12:04:00,
2013-01-17 07:09:00,49.5,48.1,29.87,SSE,158,0.0,0.0,95,0.00,,,0.00,WUHU216HW,2013-01-17 12:09:00,
2013-01-17 07:14:00,49.5,48.1,29.87,SSE,158,0.0,0.0,95,0.00,,,0.00,WUHU216HW,2013-01-17 12:14:00,
2013-01-17 07:19:00,49.7,48.2,29.87,SSE,158,0.0,0.0,95,0.00,,,0.00,WUHU216HW,2013-01-17 12:19:00,
2013-01-17 07:24:00,49.7,48.2,29.87,SSE,158,0.0,0.0,95,0.00,,,0.00,WUHU216HW,2013-01-17 12:24:00,
2013-01-17 07:29:00,49.7,48.2,29.87,SSE,158,0.0,0.0,95,0.00,,,0.00,WUHU216HW,2013-01-17 12:29:00,
2013-01-17 07:34:00,49.7,48.2,29.87,SSE,158,0.0,0.0,95,0.00,,,0.00,WUHU216HW,2013-01-17 12:34:00,
2013-01-17 07:39:00,49.7,48.2,29.88,SSE,158,0.0,0.0,95,0.00,,,0.00,WUHU216HW,2013-01-17 12:39:00,
2013-01-17 07:44:00,49.7,48.2,29.87,SSE,158,0.0,0.0,95,0.00,,,0.00,WUHU216HW,2013-01-17 12:44:00,
2013-01-17 07:49:00,49.7,48.2,29.86,SSE,158,0.0,0.0,95,0.00,,,0.00,WUHU216HW,2013-01-17 12:49:00,
2013-01-17 07:54:00,49.7,48.2,29.87,SE,135,0.0,0.0,95,0.00,,,0.00,WUHU216HW,2013-01-17 12:54:00,
2013-01-17 07:59:00,49.7,48.2,29.86,SSE,158,0.0,0.0,95,0.00,,,0.00,WUHU216HW,2013-01-17 12:59:00,
2013-01-17 08:04:00,49.7,48.2,29.86,SSE,158,0.0,0.0,95,0.00,,,0.00,WUHU216HW,2013-01-17 13:04:00,
2013-01-17 08:09:00,49.7,48.2,29.87,SSW,203,0.0,0.0,95,0.00,,,0.00,WUHU216HW,2013-01-17 13:09:00,
2013-01-17 08:14:00,49.7,48.2,29.85,SSW,203,0.0,0.0,95,0.00,,,0.00,WUHU216HW,2013-01-17 13:14:00,
2013-01-17 08:19:00,49.5,48.1,29.87,SE,135,0.0,0.4,95,0.00,,,0.00,WUHU216HW,2013-01-17 13:19:00,
2013-01-17 08:24:00,49.7,48.2,29.87,SE,135,0.0,0.4,95,0.00,,,0.00,WUHU216HW,2013-01-17 13:24:00,
2013-01-17 08:29:00,49.5,48.1,29.87,SE,135,0.0,0.4,95,0.00,,,0.00,WUHU216HW,2013-01-17 13:29:00,
2013-01-17 08:34:00,49.7,48.2,29.87,SE,135,0.0,0.4,95,0.00,,,0.00,WUHU216HW,2013-01-17 13:34:00,
2013-01-17 08:39:00,49.5,48.1,29.87,SE,135,0.0,0.0,95,0.00,,,0.00,WUHU216HW,2013-01-17 13:39:00,
2013-01-17 08:44:00,49.5,48.1,29.86,SE,135,0.0,0.0,95,0.00,,,0.00,WUHU216HW,2013-01-17 13:44:00,
2013-01-17 08:49:00,49.5,48.1,29.87,SE,135,0.0,0.4,95,0.00,,,0.00,WUHU216HW,2013-01-17 13:49:00,
2013-01-17 08:54:00,49.5,48.1,29.87,SE,135,0.0,0.4,95,0.00,,,0.00,WUHU216HW,2013-01-17 13:54:00,
2013-01-17 08:59:00,49.5,48.1,29.87,SE,135,0.2,0.4,95,0.00,,,0.00,WUHU216HW,2013-01-17 13:59:00,
2013-01-17 09:04:00,49.5,48.1,29.86,SE,135,0.0,0.2,95,0.00,,,0.00,WUHU216HW,2013-01-17 14:04:00,
2013-01-17 09:09:00,49.3,47.9,29.86,SE,135,0.0,0.4,95,0.00,,,0.00,WUHU216HW,2013-01-17 14:09:00,
2013-01-17 09:14:00,49.3,47.9,29.85,SE,135,0.0,0.4,95,0.00,,,0.00,WUHU216HW,2013-01-17 14:14:00,
2013-01-17 09:20:00,49.3,47.9,29.81,SE,135,0.0,0.4,95,0.00,,,0.00,WUHU216HW,2013-01-17 14:20:00,
2013-01-17 09:25:00,49.3,47.9,29.81,SE,135,0.0,0.4,95,0.00,,,0.00,WUHU216HW,2013-01-17 14:25:00,
2013-01-17 09:30:00,49.3,47.9,29.81,ESE,113,0.0,0.4,95,0.00,,,0.00,WUHU216HW,2013-01-17 14:30:00,
2013-01-17 09:35:00,49.3,47.9,29.81,SE,135,0.0,0.4,95,0.00,,,0.00,WUHU216HW,2013-01-17 14:35:00,
2013-01-17 09:40:00,49.3,47.9,29.80,SE,135,0.0,0.4,95,0.00,,,0.00,WUHU216HW,2013-01-17 14:40:00,
2013-01-17 09:45:00,49.3,47.9,29.81,SE,135,0.0,0.4,95,0.00,,,0.00,WUHU216HW,2013-01-17 14:45:00,
2013-01-17 09:50:00,49.3,47.9,29.80,SE,135,0.0,0.4,95,0.00,,,0.00,WUHU216HW,2013-01-17 14:50:00,
2013-01-17 09:55:00,49.3,47.9,29.81,SSW,203,0.0,0.2,95,0.00,,,0.00,WUHU216HW,2013-01-17 14:55:00,
2013-01-17 10:00:00,49.1,47.7,29.81,SE,135,0.4,0.4,95,0.00,,,0.00,WUHU216HW,2013-01-17 15:00:00,
2013-01-17 10:05:00,49.1,47.7,29.80,SE,135,0.0,0.4,95,0.00,,,0.00,WUHU216HW,2013-01-17 15:05:00,
2013-01-17 10:10:00,49.1,47.7,29.79,SE,135,0.4,0.4,95,0.00,,,0.00,WUHU216HW,2013-01-17 15:10:00,
2013-01-17 10:15:00,49.1,47.7,29.79,SE,135,0.0,0.7,95,0.00,,,0.00,WUHU216HW,2013-01-17 15:15:00,
2013-01-17 10:20:00,49.1,47.7,29.79,SE,135,0.0,0.7,95,0.00,,,0.00,WUHU216HW,2013-01-17 15:20:00,
2013-01-17 10:25:00,49.0,47.6,29.79,SE,135,0.0,0.4,95,0.00,,,0.00,WUHU216HW,2013-01-17 15:25:00,
2013-01-17 10:30:00,49.0,47.6,29.78,SSE,158,0.0,0.9,95,0.00,,,0.00,WUHU216HW,2013-01-17 15:30:00,
2013-01-17 10:35:00,48.8,47.4,29.77,SSW,203,0.2,0.9,95,0.00,,,0.00,WUHU216HW,2013-01-17 15:35:00,
2013-01-17 10:40:00,48.8,47.4,29.79,West,270,0.2,0.9,95,0.00,,,0.00,WUHU216HW,2013-01-17 15:40:00,
2013-01-17 10:45:00,48.6,47.3,29.77,SE,135,0.9,1.8,95,0.00,,,0.00,WUHU216HW,2013-01-17 15:45:00,
2013-01-17 10:50:00,48.6,47.3,29.78,ESE,113,0.4,1.8,95,0.00,,,0.00,WUHU216HW,2013-01-17 15:50:00,
2013-01-17 10:55:00,48.6,47.3,29.77,SE,135,0.4,0.7,95,0.00,,,0.00,WUHU216HW,2013-01-17 15:55:00,
2013-01-17 11:00:00,48.6,47.3,29.78,SSE,158,0.7,0.9,95,0.00,,,0.00,WUHU216HW,2013-01-17 16:00:00,
2013-01-17 11:05:00,48.6,47.3,29.76,WSW,248,0.0,0.9,95,0.00,,,0.00,WUHU216HW,2013-01-17 16:05:00,
2013-01-17 11:10:00,48.4,47.1,29.75,ESE,113,0.9,0.9,95,0.00,,,0.00,WUHU216HW,2013-01-17 16:10:00,
2013-01-17 11:15:00,48.4,47.1,29.76,SE,135,0.0,0.9,95,0.00,,,0.00,WUHU216HW,2013-01-17 16:15:00,
2013-01-17 11:20:00,48.2,46.9,29.74,SSW,203,0.0,1.8,95,0.00,,,0.00,WUHU216HW,2013-01-17 16:20:00,
2013-01-17 11:25:00,48.1,46.7,29.74,SE,135,0.0,1.8,95,0.00,,,0.00,WUHU216HW,2013-01-17 16:25:00,
2013-01-17 11:30:00,48.1,46.7,29.74,WSW,248,0.4,0.9,95,0.00,,,0.00,WUHU216HW,2013-01-17 16:30:00,
2013-01-17 11:35:00,48.1,47.0,29.73,SE,135,0.4,0.7,96,0.00,,,0.00,WUHU216HW,2013-01-17 16:35:00,
2013-01-17 11:40:00,48.1,46.7,29.73,SSE,158,0.4,0.7,95,0.00,,,0.00,WUHU216HW,2013-01-17 16:40:00,
2013-01-17 11:45:00,47.9,46.8,29.71,SE,135,1.8,1.8,96,0.00,,,0.00,WUHU216HW,2013-01-17 16:45:00,
2013-01-17 11:50:00,47.9,46.8,29.72,SE,135,0.2,1.8,96,0.00,,,0.00,WUHU216HW,2013-01-17 16:50:00,
2013-01-17 11:55:00,47.9,46.8,29.71,ESE,113,1.1,1.1,96,0.00,,,0.00,WUHU216HW,2013-01-17 16:55:00,
2013-01-17 12:00:00,47.7,46.6,29.71,SE,135,1.1,1.1,96,0.00,,,0.00,WUHU216HW,2013-01-17 17:00:00,
2013-01-17 12:05:00,47.5,46.4,29.71,SE,135,1.1,1.1,96,0.00,,,0.00,WUHU216HW,2013-01-17 17:05:00,
2013-01-17 12:10:00,47.5,46.4,29.70,SSW,203,0.4,1.1,96,0.00,,,0.00,WUHU216HW,2013-01-17 17:10:00,
2013-01-17 12:15:00,47.5,46.4,29.70,SSE,158,0.0,0.9,96,0.00,,,0.00,WUHU216HW,2013-01-17 17:15:00,
2013-01-17 12:21:00,47.3,46.3,29.71,West,270,0.2,0.9,96,0.00,,,0.00,WUHU216HW,2013-01-17 17:21:00,
2013-01-17 12:26:00,47.3,46.3,29.71,ESE,113,0.0,1.1,96,0.00,,,0.00,WUHU216HW,2013-01-17 17:26:00,
2013-01-17 12:31:00,47.2,46.1,29.70,South,180,0.0,1.1,96,0.00,,,0.00,WUHU216HW,2013-01-17 17:31:00,
2013-01-17 12:36:00,47.2,46.1,29.70,SE,135,0.0,0.9,96,0.00,,,0.00,WUHU216HW,2013-01-17 17:36:00,
2013-01-17 12:41:00,47.2,46.1,29.71,NNW,338,0.0,0.7,96,0.00,,,0.00,WUHU216HW,2013-01-17 17:41:00,
2013-01-17 12:46:00,47.2,46.1,29.70,SW,225,0.2,0.9,96,0.00,,,0.00,WUHU216HW,2013-01-17 17:46:00,
2013-01-17 12:51:00,47.2,46.1,29.70,SSE,158,0.7,0.9,96,0.00,,,0.00,WUHU216HW,2013-01-17 17:51:00,
2013-01-17 12:56:00,47.2,46.1,29.69,SE,135,0.0,0.9,96,0.00,,,0.00,WUHU216HW,2013-01-17 17:56:00,
2013-01-17 13:01:00,47.2,46.1,29.68,SSE,158,0.0,0.9,96,0.00,,,0.00,WUHU216HW,2013-01-17 18:01:00,
2013-01-17 13:06:00,47.2,46.1,29.68,ESE,113,0.2,0.7,96,0.00,,,0.00,WUHU216HW,2013-01-17 18:06:00,
2013-01-17 13:11:00,47.2,46.1,29.67,SE,135,0.0,0.7,96,0.00,,,0.00,WUHU216HW,2013-01-17 18:11:00,
2013-01-17 13:16:00,47.3,46.3,29.67,NNW,338,0.7,0.7,96,0.00,,,0.00,WUHU216HW,2013-01-17 18:16:00,
2013-01-17 13:21:00,47.3,46.3,29.66,West,270,0.0,0.7,96,0.00,,,0.00,WUHU216HW,2013-01-17 18:21:00,
2013-01-17 13:26:00,47.3,46.3,29.66,WSW,248,0.0,0.0,96,0.00,,,0.00,WUHU216HW,2013-01-17 18:26:00,
2013-01-17 13:31:00,47.3,46.3,29.65,South,180,0.0,0.0,96,0.00,,,0.00,WUHU216HW,2013-01-17 18:31:00,
2013-01-17 13:36:00,47.3,46.3,29.66,South,180,0.0,0.0,96,0.00,,,0.00,WUHU216HW,2013-01-17 18:36:00,
2013-01-17 13:41:00,47.2,46.1,29.71,West,270,0.0,0.4,96,0.00,,,0.00,WUHU216HW,2013-01-17 18:41:00,
2013-01-17 13:46:00,47.2,46.1,29.71,West,270,0.0,0.4,96,0.00,,,0.00,WUHU216HW,2013-01-17 18:46:00,
2013-01-17 13:51:00,47.0,45.6,29.72,SW,225,0.0,0.4,95,0.00,,,0.00,WUHU216HW,2013-01-17 18:51:00,
2013-01-17 13:56:00,46.8,45.5,29.72,SW,225,0.0,0.4,95,0.00,,,0.00,WUHU216HW,2013-01-17 18:56:00,
2013-01-17 14:01:00,46.8,45.5,29.73,SSE,158,0.0,0.4,95,0.00,,,0.00,WUHU216HW,2013-01-17 19:01:00,
2013-01-17 14:06:00,46.6,45.3,29.73,SSE,158,0.0,0.4,95,0.00,,,0.00,WUHU216HW,2013-01-17 19:06:00,
2013-01-17 14:11:00,46.4,45.1,29.73,SSE,158,0.0,0.0,95,0.00,,,0.00,WUHU216HW,2013-01-17 19:11:00,
2013-01-17 14:16:00,46.6,45.3,29.74,SSE,158,0.0,0.0,95,0.00,,,0.00,WUHU216HW,2013-01-17 19:16:00,
2013-01-17 14:21:00,46.4,45.1,29.74,SSE,158,0.0,0.0,95,0.00,,,0.00,WUHU216HW,2013-01-17 19:21:00,
2013-01-17 14:26:00,46.4,45.1,29.74,SSE,158,0.0,0.0,95,0.00,,,0.00,WUHU216HW,2013-01-17 19:26:00,
2013-01-17 14:31:00,46.3,44.9,29.73,SE,135,0.0,0.2,95,0.00,,,0.00,WUHU216HW,2013-01-17 19:31:00,
2013-01-17 14:36:00,46.1,44.7,29.73,SSE,158,0.0,0.4,95,0.00,,,0.00,WUHU216HW,2013-01-17 19:36:00,
2013-01-17 14:41:00,45.9,44.6,29.73,SE,135,0.0,0.9,95,0.00,,,0.00,WUHU216HW,2013-01-17 19:41:00,
2013-01-17 14:46:00,45.7,44.4,29.73,SSE,158,0.0,0.9,95,0.00,,,0.00,WUHU216HW,2013-01-17 19:46:00,
2013-01-17 14:51:00,45.7,44.4,29.71,ESE,113,0.0,0.7,95,0.00,,,0.00,WUHU216HW,2013-01-17 19:51:00,
2013-01-17 14:56:00,45.4,44.0,29.71,SSE,158,0.4,1.8,95,0.00,,,0.00,WUHU216HW,2013-01-17 19:56:00,
2013-01-17 15:01:00,45.4,44.0,29.70,SE,135,0.9,1.8,95,0.00,,,0.00,WUHU216HW,2013-01-17 20:01:00,
2013-01-17 15:06:00,45.0,43.7,29.70,ESE,113,0.2,1.1,95,0.00,,,0.00,WUHU216HW,2013-01-17 20:06:00,
2013-01-17 15:11:00,45.0,43.7,29.69,SSW,203,0.0,1.1,95,0.00,,,0.00,WUHU216HW,2013-01-17 20:11:00,
2013-01-17 15:16:00,45.0,43.7,29.68,SSE,158,2.2,2.2,95,0.00,,,0.00,WUHU216HW,2013-01-17 20:16:00,
2013-01-17 15:21:00,44.8,43.5,29.67,SE,135,1.3,2.2,95,0.00,,,0.00,WUHU216HW,2013-01-17 20:21:00,
2013-01-17 15:26:00,44.8,43.5,29.66,SSE,158,0.9,1.8,95,0.00,,,0.00,WUHU216HW,2013-01-17 20:26:00,
2013-01-17 15:31:00,44.6,43.3,29.65,WNW,293,0.4,2.2,95,0.00,,,0.00,WUHU216HW,2013-01-17 20:31:00,
2013-01-17 15:36:00,44.6,43.3,29.65,South,180,0.9,2.2,95,0.00,,,0.00,WUHU216HW,2013-01-17 20:36:00,
2013-01-17 15:41:00,44.5,43.1,29.66,SSE,158,1.1,1.1,95,0.00,,,0.00,WUHU216HW,2013-01-17 20:41:00,
2013-01-17 15:46:00,44.5,43.1,29.64,SE,135,1.8,1.8,95,0.00,,,0.00,WUHU216HW,2013-01-17 20:46:00,
2013-01-17 15:51:00,44.5,43.1,29.63,SSE,158,0.0,1.8,95,0.00,,,0.00,WUHU216HW,2013-01-17 20:51:00,
2013-01-17 15:56:00,44.5,43.1,29.64,South,180,0.0,0.9,95,0.00,,,0.00,WUHU216HW,2013-01-17 20:56:00,
2013-01-17 16:01:00,44.6,43.3,29.64,SW,225,0.4,0.7,95,0.00,,,0.00,WUHU216HW,2013-01-17 21:01:00,
2013-01-17 16:06:00,44.5,43.1,29.65,SSE,158,0.0,0.7,95,0.00,,,0.00,WUHU216HW,2013-01-17 21:06:00,
2013-01-17 16:11:00,44.5,43.1,29.67,SE,135,0.2,1.1,95,0.00,,,0.00,WUHU216HW,2013-01-17 21:11:00,
2013-01-17 16:16:00,44.3,42.9,29.68,SE,135,0.9,1.1,95,0.00,,,0.00,WUHU216HW,2013-01-17 21:16:00,
2013-01-17 16:21:00,44.1,42.8,29.69,West,270,0.7,1.3,95,0.00,,,0.00,WUHU216HW,2013-01-17 21:21:00,
2013-01-17 16:26:00,43.7,42.4,29.70,SE,135,0.9,1.3,95,0.00,,,0.00,WUHU216HW,2013-01-17 21:26:00,
2013-01-17 16:31:00,43.6,42.2,29.70,SSE,158,0.0,1.1,95,0.00,,,0.00,WUHU216HW,2013-01-17 21:31:00,
2013-01-17 16:36:00,43.4,42.0,29.70,ESE,113,0.2,1.1,95,0.00,,,0.00,WUHU216HW,2013-01-17 21:36:00,
2013-01-17 16:41:00,43.2,41.9,29.71,ESE,113,0.0,0.4,95,0.00,,,0.00,WUHU216HW,2013-01-17 21:41:00,
2013-01-17 16:46:00,43.2,41.9,29.72,SSE,158,0.2,0.4,95,0.00,,,0.00,WUHU216HW,2013-01-17 21:46:00,
2013-01-17 16:51:00,43.2,41.9,29.73,SSE,158,0.0,0.2,95,0.00,,,0.00,WUHU216HW,2013-01-17 21:51:00,
2013-01-17 16:56:00,43.2,41.9,29.74,SSE,158,0.0,0.0,95,0.00,,,0.00,WUHU216HW,2013-01-17 21:56:00,
2013-01-17 17:01:00,42.8,41.5,29.74,SSE,158,0.0,0.0,95,0.00,,,0.00,WUHU216HW,2013-01-17 22:01:00,
2013-01-17 17:06:00,42.7,41.3,29.75,SE,135,0.4,0.7,95,0.00,,,0.00,WUHU216HW,2013-01-17 22:06:00,
2013-01-17 17:11:00,42.5,41.1,29.75,SE,135,1.8,1.8,95,0.00,,,0.00,WUHU216HW,2013-01-17 22:11:00,
2013-01-17 17:16:00,42.1,40.8,29.76,SE,135,0.4,2.0,95,0.00,,,0.00,WUHU216HW,2013-01-17 22:16:00,
2013-01-17 17:21:00,41.9,40.6,29.76,SSE,158,0.0,2.0,95,0.00,,,0.00,WUHU216HW,2013-01-17 22:21:00,
2013-01-17 17:26:00,41.8,40.4,29.76,SE,135,0.0,1.6,95,0.00,,,0.00,WUHU216HW,2013-01-17 22:26:00,
2013-01-17 17:31:00,41.6,40.2,29.77,SSE,158,0.0,1.6,95,0.00,,,0.00,WUHU216HW,2013-01-17 22:31:00,
2013-01-17 17:36:00,41.4,40.1,29.76,SE,135,0.0,0.4,95,0.00,,,0.00,WUHU216HW,2013-01-17 22:36:00,
2013-01-17 17:41:00,41.2,39.9,29.77,SE,135,0.0,0.2,95,0.00,,,0.00,WUHU216HW,2013-01-17 22:41:00,
2013-01-17 17:46:00,41.0,39.7,29.79,SE,135,0.0,0.9,95,0.00,,,0.00,WUHU216HW,2013-01-17 22:46:00,
2013-01-17 17:51:00,40.9,39.5,29.78,SSW,203,0.0,0.9,95,0.00,,,0.00,WUHU216HW,2013-01-17 22:51:00,
2013-01-17 17:56:00,40.5,39.2,29.80,SSW,203,0.0,0.7,95,0.00,,,0.00,WUHU216HW,2013-01-17 22:56:00,
2013-01-17 18:01:00,40.0,38.3,29.80,SSW,203,0.2,0.4,94,0.00,,,0.00,WUHU216HW,2013-01-17 23:01:00,
2013-01-17 18:06:00,39.6,38.0,29.81,SSW,203,0.0,0.4,94,0.00,,,0.00,WUHU216HW,2013-01-17 23:06:00,
2013-01-17 18:11:00,39.2,37.6,29.82,SSW,203,0.0,0.2,94,0.00,,,0.00,WUHU216HW,2013-01-17 23:11:00,
2013-01-17 18:16:00,38.9,37.3,29.82,SSW,203,0.0,0.2,94,0.00,,,0.00,WUHU216HW,2013-01-17 23:16:00,
2013-01-17 18:21:00,38.7,37.1,29.83,SSW,203,0.0,0.2,94,0.00,,,0.00,WUHU216HW,2013-01-17 23:21:00,
2013-01-17 18:26:00,38.5,36.9,29.83,West,270,0.7,0.7,94,0.00,,,0.00,WUHU216HW,2013-01-17 23:26:00,
2013-01-17 18:31:00,38.0,36.4,29.84,WNW,293,0.0,0.7,94,0.00,,,0.00,WUHU216HW,2013-01-17 23:31:00,
2013-01-17 18:36:00,37.8,36.2,29.84,NW,315,0.0,0.4,94,0.00,,,0.00,WUHU216HW,2013-01-17 23:36:00,
2013-01-17 18:41:00,37.3,35.6,29.86,WNW,293,0.0,0.4,94,0.00,,,0.00,WUHU216HW,2013-01-17 23:41:00,
2013-01-17 18:46:00,37.1,35.5,29.86,SSE,158,0.2,0.4,94,0.00,,,0.00,WUHU216HW,2013-01-17 23:46:00,
2013-01-17 18:51:00,36.5,34.9,29.88,South,180,0.4,0.4,94,0.00,,,0.00,WUHU216HW,2013-01-17 23:51:00,
2013-01-17 18:56:00,36.4,34.7,29.87,SE,135,0.4,0.4,94,0.00,,,0.00,WUHU216HW,2013-01-17 23:56:00,
2013-01-17 19:01:00,36.4,34.7,29.88,SSE,158,0.4,0.4,94,0.00,,,0.00,WUHU216HW,2013-01-18 00:01:00,
2013-01-17 19:06:00,36.2,34.6,29.88,SE,135,1.3,1.3,94,0.00,,,0.00,WUHU216HW,2013-01-18 00:06:00,
2013-01-17 19:11:00,36.0,34.4,29.88,SSE,158,0.2,1.8,94,0.00,,,0.00,WUHU216HW,2013-01-18 00:11:00,
2013-01-17 19:16:00,35.8,34.2,29.89,SSE,158,0.4,1.8,94,0.00,,,0.00,WUHU216HW,2013-01-18 00:16:00,
2013-01-17 19:21:00,35.6,34.0,29.89,West,270,0.4,1.8,94,0.00,,,0.00,WUHU216HW,2013-01-18 00:21:00,
2013-01-17 19:26:00,35.5,33.8,29.91,SSE,158,1.1,1.8,94,0.00,,,0.00,WUHU216HW,2013-01-18 00:26:00,
2013-01-17 19:31:00,35.5,33.8,29.90,ESE,113,0.4,1.8,94,0.00,,,0.00,WUHU216HW,2013-01-18 00:31:00,
2013-01-17 19:36:00,35.5,33.8,29.91,SSW,203,0.0,1.8,94,0.00,,,0.00,WUHU216HW,2013-01-18 00:36:00,
2013-01-17 19:41:00,35.5,33.8,29.91,SSW,203,0.0,0.4,94,0.00,,,0.00,WUHU216HW,2013-01-18 00:41:00,
2013-01-17 19:46:00,35.3,33.7,29.91,SSW,203,0.0,0.0,94,0.00,,,0.00,WUHU216HW,2013-01-18 00:46:00,
2013-01-17 19:51:00,35.3,33.7,29.92,SSE,158,0.2,0.2,94,0.00,,,0.00,WUHU216HW,2013-01-18 00:51:00,
2013-01-17 19:56:00,35.1,33.5,29.92,SSE,158,0.0,0.4,94,0.00,,,0.00,WUHU216HW,2013-01-18 00:56:00,
2013-01-17 20:01:00,35.1,33.5,29.93,SSE,158,0.0,0.4,94,0.00,,,0.00,WUHU216HW,2013-01-18 01:01:00,
2013-01-17 20:06:00,35.1,33.5,29.93,SE,135,0.4,0.4,94,0.00,,,0.00,WUHU216HW,2013-01-18 01:06:00,
2013-01-17 20:11:00,34.9,33.3,29.94,SSE,158,0.2,0.4,94,0.00,,,0.00,WUHU216HW,2013-01-18 01:11:00,
2013-01-17 20:16:00,34.9,33.3,29.93,SE,135,0.2,0.4,94,0.00,,,0.00,WUHU216HW,2013-01-18 01:16:00,
2013-01-17 20:21:00,34.9,33.3,29.93,East,90,0.2,0.4,94,0.00,,,0.00,WUHU216HW,2013-01-18 01:21:00,
2013-01-17 20:26:00,34.9,33.3,29.93,SSE,158,0.0,0.4,94,0.00,,,0.00,WUHU216HW,2013-01-18 01:26:00,
2013-01-17 20:31:00,34.9,33.3,29.93,SW,225,0.0,0.4,94,0.00,,,0.00,WUHU216HW,2013-01-18 01:31:00,
2013-01-17 20:36:00,34.7,33.1,29.95,North,0,0.4,0.7,94,0.00,,,0.00,WUHU216HW,2013-01-18 01:36:00,
2013-01-17 20:41:00,34.7,33.1,29.96,South,180,0.9,0.9,94,0.00,,,0.00,WUHU216HW,2013-01-18 01:41:00,
2013-01-17 20:46:00,34.7,33.1,29.96,SE,135,0.0,0.9,94,0.00,,,0.00,WUHU216HW,2013-01-18 01:46:00,
2013-01-17 20:51:00,34.7,33.1,29.96,SE,135,0.7,0.7,94,0.00,,,0.00,WUHU216HW,2013-01-18 01:51:00,
2013-01-17 20:56:00,34.6,32.9,29.96,SSE,158,0.0,0.7,94,0.00,,,0.00,WUHU216HW,2013-01-18 01:56:00,
2013-01-17 21:01:00,34.6,32.9,29.95,SSE,158,0.4,0.7,94,0.00,,,0.00,WUHU216HW,2013-01-18 02:01:00,
2013-01-17 21:06:00,34.4,32.5,29.95,ENE,68,0.7,0.7,93,0.00,,,0.00,WUHU216HW,2013-01-18 02:06:00,
2013-01-17 21:11:00,34.2,32.3,29.96,SSW,203,0.2,0.7,93,0.00,,,0.00,WUHU216HW,2013-01-18 02:11:00,
2013-01-17 21:16:00,34.0,32.1,29.97,SSE,158,0.4,0.4,93,0.00,,,0.00,WUHU216HW,2013-01-18 02:16:00,
2013-01-17 21:21:00,33.7,31.5,29.98,SSE,158,0.2,0.4,92,0.00,,,0.00,WUHU216HW,2013-01-18 02:21:00,
2013-01-17 21:26:00,33.5,31.3,29.99,WSW,248,0.4,1.3,92,0.00,,,0.00,WUHU216HW,2013-01-18 02:26:00,
2013-01-17 21:31:00,33.5,31.1,29.99,ESE,113,0.4,2.7,91,0.00,,,0.00,WUHU216HW,2013-01-18 02:31:00,
2013-01-17 21:36:00,33.3,30.7,30.00,NNW,338,0.4,2.7,90,0.00,,,0.00,WUHU216HW,2013-01-18 02:36:00,
2013-01-17 21:41:00,33.1,29.9,30.00,SSE,158,0.4,0.9,88,0.00,,,0.00,WUHU216HW,2013-01-18 02:41:00,
2013-01-17 21:46:00,33.1,29.3,29.99,SE,135,1.1,1.1,86,0.00,,,0.00,WUHU216HW,2013-01-18 02:46:00,
2013-01-17 21:51:00,33.1,29.3,29.99,ENE,68,0.7,1.1,86,0.00,,,0.00,WUHU216HW,2013-01-18 02:51:00,
2013-01-17 21:56:00,32.9,29.2,29.99,SE,135,0.7,0.9,86,0.00,,,0.00,WUHU216HW,2013-01-18 02:56:00,
2013-01-17 22:01:00,32.9,28.9,30.00,NW,315,0.4,0.7,85,0.00,,,0.00,WUHU216HW,2013-01-18 03:01:00,
2013-01-17 22:06:00,32.9,28.9,30.01,ESE,113,0.9,2.2,85,0.00,,,0.00,WUHU216HW,2013-01-18 03:06:00,
2013-01-17 22:12:00,32.8,28.4,30.01,SE,135,0.4,2.2,84,0.00,,,0.00,WUHU216HW,2013-01-18 03:12:00,
2013-01-17 22:17:00,32.9,28.4,30.02,South,180,0.4,1.1,83,0.00,,,0.00,WUHU216HW,2013-01-18 03:17:00,
2013-01-17 22:22:00,32.8,28.2,30.02,NNW,338,0.0,1.1,83,0.00,,,0.00,WUHU216HW,2013-01-18 03:22:00,
2013-01-17 22:27:00,32.9,27.7,30.02,NNW,338,0.0,1.1,81,0.00,,,0.00,WUHU216HW,2013-01-18 03:27:00,
2013-01-17 22:32:00,32.9,28.0,30.02,NNW,338,0.0,0.0,82,0.00,,,0.00,WUHU216HW,2013-01-18 03:32:00,
2013-01-17 22:37:00,32.8,27.5,30.03,NNW,338,0.0,0.0,81,0.00,,,0.00,WUHU216HW,2013-01-18 03:37:00,
2013-01-17 22:42:00,32.9,27.5,30.03,NNW,338,0.0,0.0,80,0.00,,,0.00,WUHU216HW,2013-01-18 03:42:00,
2013-01-17 22:47:00,32.9,27.5,30.01,NNW,338,0.0,0.0,80,0.00,,,0.00,WUHU216HW,2013-01-18 03:47:00,
2013-01-17 22:52:00,32.8,27.3,30.03,NNW,338,0.0,0.0,80,0.00,,,0.00,WUHU216HW,2013-01-18 03:52:00,
2013-01-17 22:57:00,32.8,27.3,30.03,NNW,338,0.0,0.0,80,0.00,,,0.00,WUHU216HW,2013-01-18 03:57:00,
2013-01-17 23:02:00,32.8,27.0,30.03,NNW,338,0.0,0.0,79,0.00,,,0.00,WUHU216HW,2013-01-18 04:02:00,
2013-01-17 23:07:00,32.8,27.3,30.03,NNW,338,0.0,0.0,80,0.00,,,0.00,WUHU216HW,2013-01-18 04:07:00,
2013-01-17 23:12:00,32.6,27.1,30.03,NNW,338,0.0,0.0,80,0.00,,,0.00,WUHU216HW,2013-01-18 04:12:00,
2013-01-17 23:17:00,32.6,27.1,30.04,NNW,338,0.0,0.0,80,0.00,,,0.00,WUHU216HW,2013-01-18 04:17:00,
2013-01-17 23:22:00,32.6,26.8,30.03,NNW,338,0.0,0.0,79,0.00,,,0.00,WUHU216HW,2013-01-18 04:22:00,
2013-01-17 23:27:00,32.4,26.3,30.03,NNW,338,0.0,0.0,78,0.00,,,0.00,WUHU216HW,2013-01-18 04:27:00,
2013-01-17 23:32:00,32.4,26.3,30.04,NNW,338,0.0,0.0,78,0.00,,,0.00,WUHU216HW,2013-01-18 04:32:00,
2013-01-17 23:37:00,32.4,26.3,30.04,NNW,338,0.0,0.0,78,0.00,,,0.00,WUHU216HW,2013-01-18 04:37:00,
2013-01-17 23:42:00,32.4,26.6,30.05,NNW,338,0.0,0.0,79,0.00,,,0.00,WUHU216HW,2013-01-18 04:42:00,
2013-01-17 23:47:00,32.2,26.2,30.05,NNW,338,0.0,0.0,78,0.00,,,0.00,WUHU216HW,2013-01-18 04:47:00,
2013-01-17 23:52:00,32.2,26.2,30.05,NNW,338,0.0,0.0,78,0.00,,,0.00,WUHU216HW,2013-01-18 04:52:00,
2013-01-17 23:57:00,32.2,26.2,30.05,NNW,338,0.0,0.0,78,0.00,,,0.00,WUHU216HW,2013-01-18 04:57:00,